| time (UTC) | temp C | wind direction | speed KPH | gust KPH | rain 1hr cm | rain 24hr cm | rain mn cm | humidity % | barometer mb |
| 20260503173822 | 14 | 212 | 3.2 | 4.8 | 0.00 | 0.00 | 0.00 | 40 | 1016.1 |
| 20260503173319 | 15 | 13 | 3.2 | 6.4 | 0.00 | 0.00 | 0.00 | 43 | 1016.0 |
| 20260503172816 | 14 | 64 | 1.6 | 3.2 | 0.00 | 0.00 | 0.00 | 43 | 1016.1 |
| 20260503172314 | 15 | 205 | 8.0 | 9.7 | 0.00 | 0.00 | 0.00 | 37 | 1016.1 |
| 20260503171809 | 15 | 309 | 1.6 | 1.6 | 0.00 | 0.00 | 0.00 | 34 | 1016.1 |
| 20260503171306 | 14 | 15 | 0.0 | 1.6 | 0.00 | 0.00 | 0.00 | 43 | 1016.3 |
| 20260503170804 | 13 | 6 | 1.6 | 1.6 | 0.00 | 0.00 | 0.00 | 44 | 1016.4 |
| 20260503170300 | 13 | 217 | 1.6 | 6.4 | 0.00 | 0.00 | 0.00 | 40 | 1016.3 |
| 20260503150652 | 11 | 217 | 3.2 | 4.8 | 0.00 | 0.00 | 0.00 | 46 | 1017.3 |
| 20260503150148 | 10 | 230 | 3.2 | 3.2 | 0.00 | 0.00 | 0.00 | 48 | 1017.3 |
| 20260503140113 | 8 | 222 | 4.8 | 4.8 | 0.00 | 0.00 | 0.00 | 62 | 1017.7 |
| 20260503131042 | 6 | 327 | 1.6 | 3.2 | 0.00 | 0.00 | 0.00 | 73 | 1017.7 |
| 20260503130539 | 5 | 334 | 0.0 | 0.0 | 0.00 | 0.00 | 0.00 | 73 | 1017.8 |
| 20260503110435 | 1 | 20 | 0.0 | 0.0 | 0.00 | 0.00 | 0.00 | 92 | 1017.1 |
| 20260503090326 | 1 | 19 | 0.0 | 0.0 | 0.00 | 0.00 | 0.00 | 90 | 1016.2 |
| 20260503081254 | 1 | 19 | 0.0 | 0.0 | 0.00 | 0.00 | 0.00 | 87 | 1016.2 |
| 20260503080749 | 2 | 19 | 0.0 | 0.0 | 0.00 | 0.00 | 0.00 | 87 | 1016.2 |
| 20260503080247 | 2 | 20 | 0.0 | 0.0 | 0.00 | 0.00 | 0.00 | 87 | 1016.2 |
| 20260503072724 | 2 | 18 | 0.0 | 0.0 | 0.00 | 0.00 | 0.00 | 89 | 1016.1 |
| 20260503072220 | 2 | 18 | 0.0 | 0.0 | 0.00 | 0.00 | 0.00 | 89 | 1016.1 |
| 20260503071717 | 2 | 23 | 0.0 | 0.0 | 0.00 | 0.00 | 0.00 | 89 | 1016.1 |
| 20260503071214 | 2 | 21 | 0.0 | 0.0 | 0.00 | 0.00 | 0.00 | 89 | 1016.1 |
| 20260503070710 | 2 | 21 | 0.0 | 0.0 | 0.00 | 0.00 | 0.00 | 89 | 1016.1 |
| 20260503070209 | 2 | 21 | 0.0 | 0.0 | 0.00 | 0.00 | 0.00 | 89 | 1016.1 |
| 20260503060139 | 2 | 19 | 0.0 | 0.0 | 0.00 | 0.00 | 0.00 | 89 | 1016.1 |
| 20260503054626 | 2 | 18 | 0.0 | 0.0 | 0.00 | 0.00 | 0.00 | 89 | 1016.0 |
| 20260503054123 | 2 | 19 | 0.0 | 0.0 | 0.00 | 0.00 | 0.00 | 89 | 1016.1 |
| 20260503053621 | 2 | 16 | 0.0 | 0.0 | 0.00 | 0.00 | 0.00 | 88 | 1016.1 |
| 20260503053119 | 2 | 17 | 0.0 | 0.0 | 0.00 | 0.00 | 0.00 | 88 | 1016.0 |
| 20260503052615 | 2 | 13 | 0.0 | 0.0 | 0.00 | 0.00 | 0.00 | 88 | 1016.4 |
| 20260503052112 | 2 | 13 | 0.0 | 0.0 | 0.00 | 0.00 | 0.00 | 88 | 1016.3 |
| 20260503051607 | 2 | 13 | 0.0 | 0.0 | 0.00 | 0.00 | 0.00 | 88 | 1016.4 |
| 20260503051105 | 2 | 13 | 0.0 | 0.0 | 0.00 | 0.00 | 0.00 | 88 | 1016.3 |
| 20260503050601 | 2 | 13 | 0.0 | 0.0 | 0.00 | 0.00 | 0.00 | 87 | 1016.2 |
| 20260503050058 | 2 | 14 | 0.0 | 0.0 | 0.00 | 0.00 | 0.00 | 87 | 1016.4 |
| 20260503045555 | 2 | 14 | 0.0 | 0.0 | 0.00 | 0.00 | 0.00 | 87 | 1016.3 |
| 20260503045052 | 2 | 21 | 0.0 | 0.0 | 0.00 | 0.00 | 0.00 | 86 | 1016.4 |
| 20260503044549 | 2 | 21 | 0.0 | 0.0 | 0.00 | 0.00 | 0.00 | 86 | 1016.3 |
| 20260503044047 | 2 | 22 | 0.0 | 0.0 | 0.00 | 0.00 | 0.00 | 86 | 1016.4 |
| 20260503043543 | 2 | 21 | 0.0 | 0.0 | 0.00 | 0.00 | 0.00 | 85 | 1016.4 |
| 20260503043040 | 2 | 18 | 0.0 | 0.0 | 0.00 | 0.00 | 0.00 | 84 | 1016.5 |
| 20260503042537 | 2 | 18 | 0.0 | 0.0 | 0.00 | 0.00 | 0.00 | 84 | 1016.4 |
| 20260503042032 | 2 | 18 | 0.0 | 0.0 | 0.00 | 0.00 | 0.00 | 83 | 1016.3 |
| 20260503041529 | 2 | 18 | 0.0 | 0.0 | 0.00 | 0.00 | 0.00 | 82 | 1016.5 |
| 20260503041028 | 2 | 18 | 0.0 | 0.0 | 0.00 | 0.00 | 0.00 | 81 | 1016.4 |
| 20260503040525 | 2 | 18 | 0.0 | 0.0 | 0.00 | 0.00 | 0.00 | 81 | 1016.5 |
| 20260503040022 | 2 | 17 | 0.0 | 0.0 | 0.00 | 0.03 | 0.03 | 81 | 1016.6 |
| 20260503035519 | 3 | 18 | 0.0 | 0.0 | 0.00 | 0.03 | 0.03 | 80 | 1016.4 |
| 20260503035016 | 3 | 17 | 0.0 | 0.0 | 0.00 | 0.03 | 0.03 | 79 | 1016.4 |
| 20260503034513 | 3 | 17 | 0.0 | 0.0 | 0.00 | 0.03 | 0.03 | 79 | 1016.5 |
| 20260503034010 | 3 | 17 | 0.0 | 0.0 | 0.00 | 0.03 | 0.03 | 79 | 1016.4 |
| 20260503033507 | 3 | 17 | 0.0 | 0.0 | 0.00 | 0.03 | 0.03 | 80 | 1016.4 |
| 20260503033006 | 3 | 16 | 0.0 | 1.6 | 0.00 | 0.03 | 0.03 | 80 | 1016.4 |
| 20260503032503 | 3 | 18 | 0.0 | 0.0 | 0.00 | 0.03 | 0.03 | 80 | 1016.4 |
| 20260503032001 | 3 | 21 | 0.0 | 0.0 | 0.00 | 0.03 | 0.03 | 81 | 1016.3 |
| 20260503031459 | 3 | 21 | 0.0 | 0.0 | 0.00 | 0.03 | 0.03 | 81 | 1016.4 |
| 20260503030955 | 3 | 19 | 0.0 | 0.0 | 0.00 | 0.03 | 0.03 | 81 | 1016.6 |
| 20260503030451 | 3 | 11 | 0.0 | 0.0 | 0.00 | 0.03 | 0.03 | 80 | 1016.4 |
| 20260503025948 | 3 | 22 | 0.0 | 0.0 | 0.00 | 0.03 | 0.03 | 80 | 1016.5 |
| 20260503025445 | 3 | 22 | 1.6 | 1.6 | 0.00 | 0.03 | 0.03 | 80 | 1016.6 |
| 20260503024943 | 3 | 24 | 0.0 | 1.6 | 0.00 | 0.03 | 0.03 | 80 | 1016.4 |
| 20260503024439 | 3 | 24 | 0.0 | 0.0 | 0.00 | 0.03 | 0.03 | 79 | 1016.5 |
| 20260503023937 | 3 | 24 | 0.0 | 0.0 | 0.00 | 0.03 | 0.03 | 78 | 1016.6 |
| 20260503023434 | 3 | 24 | 0.0 | 0.0 | 0.00 | 0.03 | 0.03 | 79 | 1016.6 |
| 20260503022930 | 4 | 23 | 0.0 | 0.0 | 0.00 | 0.03 | 0.03 | 79 | 1016.5 |
| 20260503022425 | 4 | 23 | 0.0 | 0.0 | 0.00 | 0.03 | 0.03 | 79 | 1016.7 |
| 20260503021922 | 4 | 23 | 0.0 | 0.0 | 0.00 | 0.03 | 0.03 | 79 | 1016.7 |
| 20260503021417 | 4 | 23 | 0.0 | 0.0 | 0.00 | 0.03 | 0.03 | 79 | 1016.6 |
| 20260503020915 | 4 | 23 | 0.0 | 0.0 | 0.00 | 0.03 | 0.03 | 79 | 1016.6 |
| 20260503020413 | 4 | 23 | 0.0 | 0.0 | 0.00 | 0.03 | 0.03 | 79 | 1016.7 |
| 20260503015909 | 4 | 24 | 0.0 | 0.0 | 0.00 | 0.03 | 0.03 | 78 | 1016.7 |
| 20260503015406 | 4 | 26 | 0.0 | 1.6 | 0.00 | 0.03 | 0.03 | 77 | 1016.5 |
| 20260503014902 | 4 | 25 | 0.0 | 1.6 | 0.00 | 0.03 | 0.03 | 77 | 1016.5 |
| 20260503014359 | 4 | 24 | 0.0 | 0.0 | 0.00 | 0.03 | 0.03 | 77 | 1016.6 |
| 20260503013857 | 5 | 24 | 0.0 | 1.6 | 0.00 | 0.03 | 0.03 | 77 | 1016.6 |
| 20260503013354 | 5 | 16 | 0.0 | 0.0 | 0.00 | 0.03 | 0.03 | 77 | 1016.5 |
| 20260503012851 | 5 | 25 | 0.0 | 1.6 | 0.00 | 0.03 | 0.03 | 76 | 1016.6 |
| 20260503012349 | 5 | 24 | 0.0 | 1.6 | 0.00 | 0.03 | 0.03 | 76 | 1016.6 |
| 20260503011845 | 5 | 20 | 0.0 | 0.0 | 0.00 | 0.03 | 0.03 | 76 | 1016.3 |
| 20260503011343 | 5 | 20 | 0.0 | 0.0 | 0.00 | 0.03 | 0.03 | 76 | 1016.6 |
| 20260503010839 | 5 | 23 | 0.0 | 0.0 | 0.00 | 0.03 | 0.03 | 75 | 1016.3 |
| 20260503010336 | 5 | 24 | 0.0 | 0.0 | 0.00 | 0.03 | 0.03 | 75 | 1016.4 |
| 20260503005833 | 5 | 25 | 0.0 | 0.0 | 0.00 | 0.03 | 0.03 | 74 | 1016.3 |
| 20260503005331 | 5 | 24 | 0.0 | 0.0 | 0.00 | 0.03 | 0.03 | 73 | 1016.3 |
| 20260503004826 | 5 | 23 | 0.0 | 0.0 | 0.00 | 0.03 | 0.03 | 74 | 1016.2 |
| 20260503004324 | 5 | 19 | 0.0 | 0.0 | 0.00 | 0.03 | 0.03 | 73 | 1016.1 |
| 20260503003821 | 5 | 19 | 0.0 | 0.0 | 0.00 | 0.03 | 0.03 | 73 | 1016.2 |
| 20260503003318 | 5 | 19 | 0.0 | 0.0 | 0.00 | 0.03 | 0.03 | 72 | 1016.0 |
| 20260503002815 | 5 | 19 | 0.0 | 0.0 | 0.00 | 0.03 | 0.03 | 72 | 1016.0 |
| 20260503002312 | 5 | 21 | 0.0 | 0.0 | 0.00 | 0.03 | 0.03 | 71 | 1016.0 |
| 20260503001808 | 5 | 17 | 0.0 | 0.0 | 0.00 | 0.03 | 0.03 | 72 | 1015.9 |
| 20260503001305 | 5 | 17 | 0.0 | 0.0 | 0.00 | 0.03 | 0.03 | 72 | 1016.1 |
| 20260503000803 | 5 | 17 | 0.0 | 0.0 | 0.00 | 0.03 | 0.03 | 71 | 1015.9 |
| 20260503000259 | 5 | 16 | 0.0 | 0.0 | 0.00 | 0.03 | 0.03 | 72 | 1016.0 |
| 20260502235756 | 5 | 16 | 0.0 | 0.0 | 0.00 | 0.03 | 0.03 | 71 | 1016.0 |
| 20260502235254 | 6 | 13 | 0.0 | 0.0 | 0.00 | 0.03 | 0.03 | 73 | 1015.9 |
| 20260502234750 | 6 | 9 | 0.0 | 0.0 | 0.00 | 0.03 | 0.03 | 68 | 1015.7 |
| 20260502234248 | 6 | 5 | 0.0 | 0.0 | 0.00 | 0.03 | 0.03 | 69 | 1015.8 |
| 20260502233744 | 6 | 16 | 0.0 | 0.0 | 0.00 | 0.03 | 0.03 | 71 | 1015.7 |
| 20260502233241 | 6 | 12 | 0.0 | 0.0 | 0.00 | 0.03 | 0.03 | 72 | 1015.7 |
| 20260502232736 | 6 | 17 | 0.0 | 0.0 | 0.00 | 0.03 | 0.03 | 70 | 1015.7 |
| 20260502232233 | 6 | 18 | 0.0 | 0.0 | 0.00 | 0.03 | 0.03 | 71 | 1015.6 |
| 20260502231730 | 6 | 22 | 0.0 | 0.0 | 0.00 | 0.03 | 0.03 | 69 | 1015.6 |
| 20260502231228 | 6 | 7 | 0.0 | 0.0 | 0.00 | 0.03 | 0.03 | 70 | 1015.7 |
| 20260502230727 | 6 | 19 | 0.0 | 0.0 | 0.00 | 0.03 | 0.03 | 69 | 1015.6 |
| 20260502230224 | 6 | 12 | 0.0 | 0.0 | 0.00 | 0.03 | 0.03 | 71 | 1015.6 |
| 20260502225720 | 6 | 2 | 0.0 | 1.6 | 0.00 | 0.03 | 0.03 | 71 | 1015.6 |
| 20260502225218 | 6 | 8 | 0.0 | 0.0 | 0.00 | 0.03 | 0.03 | 70 | 1015.7 |
| 20260502224714 | 6 | 15 | 0.0 | 0.0 | 0.00 | 0.03 | 0.03 | 71 | 1015.8 |
| 20260502224211 | 6 | 18 | 0.0 | 1.6 | 0.00 | 0.03 | 0.03 | 70 | 1015.8 |
| 20260502223708 | 6 | 349 | 0.0 | 1.6 | 0.00 | 0.03 | 0.03 | 71 | 1015.8 |
| 20260502223206 | 6 | 344 | 1.6 | 1.6 | 0.00 | 0.03 | 0.03 | 70 | 1015.5 |
| 20260502222703 | 6 | 9 | 0.0 | 0.0 | 0.00 | 0.03 | 0.03 | 72 | 1015.5 |
| 20260502222200 | 7 | 0 | 1.6 | 1.6 | 0.00 | 0.03 | 0.03 | 72 | 1015.5 |
| 20260502221655 | 7 | 8 | 0.0 | 0.0 | 0.00 | 0.03 | 0.03 | 72 | 1015.5 |
| 20260502221153 | 7 | 2 | 0.0 | 0.0 | 0.00 | 0.03 | 0.03 | 74 | 1015.5 |
| 20260502220649 | 7 | 31 | 0.0 | 0.0 | 0.00 | 0.03 | 0.03 | 71 | 1015.5 |
| 20260502220145 | 7 | 10 | 0.0 | 0.0 | 0.00 | 0.03 | 0.03 | 71 | 1015.5 |
| 20260502215642 | 7 | 13 | 0.0 | 0.0 | 0.00 | 0.03 | 0.03 | 72 | 1015.4 |
| 20260502215139 | 7 | 67 | 1.6 | 3.2 | 0.00 | 0.03 | 0.03 | 71 | 1015.5 |
| 20260502214636 | 7 | 352 | 0.0 | 0.0 | 0.00 | 0.03 | 0.03 | 72 | 1015.4 |
| 20260502214133 | 7 | 6 | 0.0 | 0.0 | 0.00 | 0.03 | 0.03 | 71 | 1015.5 |
| 20260502213631 | 7 | 6 | 0.0 | 0.0 | 0.00 | 0.03 | 0.03 | 72 | 1015.4 |
| 20260502213128 | 7 | 5 | 0.0 | 0.0 | 0.00 | 0.03 | 0.03 | 70 | 1015.4 |
| 20260502212627 | 7 | 350 | 0.0 | 0.0 | 0.00 | 0.03 | 0.03 | 69 | 1015.2 |
| 20260502212125 | 7 | 15 | 0.0 | 0.0 | 0.00 | 0.03 | 0.03 | 70 | 1015.4 |
| 20260502211626 | 7 | 16 | 0.0 | 0.0 | 0.00 | 0.03 | 0.03 | 71 | 1015.1 |
| 20260502211123 | 7 | 10 | 0.0 | 0.0 | 0.00 | 0.03 | 0.03 | 71 | 1015.1 |
| 20260502210621 | 7 | 6 | 0.0 | 0.0 | 0.00 | 0.03 | 0.03 | 72 | 1015.1 |
| 20260502210117 | 7 | 334 | 0.0 | 1.6 | 0.00 | 0.03 | 0.03 | 73 | 1015.1 |
| 20260502205614 | 7 | 2 | 0.0 | 0.0 | 0.00 | 0.03 | 0.03 | 73 | 1015.1 |
| 20260502205111 | 7 | 10 | 0.0 | 0.0 | 0.00 | 0.03 | 0.03 | 72 | 1015.2 |
| 20260502204608 | 6 | 13 | 0.0 | 0.0 | 0.00 | 0.03 | 0.03 | 73 | 1015.0 |
| 20260502204105 | 7 | 0 | 0.0 | 1.6 | 0.00 | 0.03 | 0.03 | 74 | 1015.2 |
| 20260502203602 | 6 | 6 | 0.0 | 0.0 | 0.00 | 0.03 | 0.03 | 73 | 1015.0 |
| 20260502203100 | 7 | 43 | 0.0 | 0.0 | 0.00 | 0.03 | 0.03 | 73 | 1014.9 |
| 20260502202555 | 7 | 344 | 0.0 | 1.6 | 0.00 | 0.03 | 0.03 | 72 | 1015.0 |
| 20260502202054 | 7 | 22 | 0.0 | 0.0 | 0.00 | 0.03 | 0.03 | 71 | 1015.1 |
| 20260502201549 | 7 | 336 | 1.6 | 3.2 | 0.00 | 0.03 | 0.03 | 71 | 1015.0 |
| 20260502201046 | 7 | 350 | 1.6 | 1.6 | 0.00 | 0.03 | 0.03 | 74 | 1015.1 |
| 20260502200542 | 7 | 18 | 0.0 | 0.0 | 0.00 | 0.03 | 0.03 | 75 | 1015.0 |
| 20260502200040 | 6 | 13 | 0.0 | 0.0 | 0.00 | 0.03 | 0.03 | 75 | 1015.1 |
| 20260502195537 | 6 | 5 | 0.0 | 0.0 | 0.00 | 0.03 | 0.03 | 75 | 1015.1 |
| 20260502195033 | 6 | 357 | 0.0 | 0.0 | 0.00 | 0.03 | 0.03 | 76 | 1015.2 |
| 20260502194530 | 6 | 68 | 1.6 | 1.6 | 0.00 | 0.03 | 0.03 | 74 | 1015.1 |
| 20260502194026 | 6 | 5 | 0.0 | 0.0 | 0.00 | 0.03 | 0.03 | 74 | 1015.2 |
| 20260502193524 | 7 | 4 | 0.0 | 0.0 | 0.00 | 0.03 | 0.03 | 75 | 1015.2 |
| 20260502193020 | 7 | 4 | 0.0 | 0.0 | 0.00 | 0.03 | 0.03 | 75 | 1015.5 |
| 20260502192516 | 7 | 10 | 0.0 | 0.0 | 0.00 | 0.03 | 0.03 | 73 | 1015.6 |
| 20260502192014 | 7 | 359 | 0.0 | 0.0 | 0.00 | 0.03 | 0.03 | 73 | 1015.4 |
| 20260502191510 | 7 | 4 | 0.0 | 0.0 | 0.00 | 0.03 | 0.03 | 74 | 1015.8 |
| 20260502191008 | 7 | 4 | 0.0 | 0.0 | 0.00 | 0.03 | 0.03 | 76 | 1015.6 |
| 20260502190505 | 7 | 22 | 0.0 | 0.0 | 0.00 | 0.03 | 0.03 | 76 | 1015.6 |
| 20260502190001 | 7 | 0 | 0.0 | 0.0 | 0.00 | 0.03 | 0.03 | 76 | 1015.6 |
| 20260502185457 | 7 | 4 | 0.0 | 0.0 | 0.00 | 0.03 | 0.03 | 75 | 1015.7 |
| 20260502184954 | 7 | 300 | 1.6 | 3.2 | 0.00 | 0.03 | 0.03 | 76 | 1015.6 |
| 20260502184449 | 7 | 345 | 1.6 | 3.2 | 0.00 | 0.03 | 0.03 | 76 | 1015.7 |
| 20260502183946 | 7 | 350 | 1.6 | 1.6 | 0.00 | 0.03 | 0.03 | 77 | 1015.8 |
| 20260502183443 | 7 | 4 | 0.0 | 0.0 | 0.00 | 0.03 | 0.03 | 75 | 1015.8 |
| 20260502182937 | 7 | 8 | 1.6 | 1.6 | 0.00 | 0.03 | 0.03 | 78 | 1015.8 |
| 20260502182434 | 6 | 10 | 0.0 | 0.0 | 0.00 | 0.03 | 0.03 | 80 | 1015.8 |
| 20260502181930 | 6 | 10 | 0.0 | 0.0 | 0.00 | 0.03 | 0.03 | 81 | 1015.8 |
| 20260502181428 | 6 | 326 | 1.6 | 1.6 | 0.00 | 0.03 | 0.03 | 81 | 1015.8 |
| 20260502180926 | 6 | 17 | 0.0 | 0.0 | 0.00 | 0.03 | 0.03 | 82 | 1015.8 |
| 20260502180423 | 6 | 7 | 0.0 | 0.0 | 0.00 | 0.03 | 0.03 | 82 | 1015.7 |